Location: All Nations United Methodist Church
(33.0215°N, 96.7483°W)
Time: 15:40:39
(UTC+00:00)

Spot 2 - Pass Details

Date: 24 January 2021
Orbit: 570 x 773 km, 98.8° (Epoch: 07 March)

Event Time Altitude Azimuth Distance (km) Brightness Sun altitude
Rises 12:47:11 0° 7° (N) 2,777 7.3 -8.6°
Reaches altitude 10° 12:49:20 10° 2° (N) 1,879 6.4 -8.2°
Maximum altitude 12:53:16 53° 286° (WNW) 715 4.0 -7.4°
Drops below altitude 10° 12:57:18 10° 209° (SSW) 1,917 6.5 -6.6°
Sets 12:59:31 0° 205° (SSW) 2,839 7.4 -6.2°
